Regional Weather Roundup
Issued by NWS State College, PA

Home | Current Version | Previous Version | Graphics & Text | Print | Product List | Glossary Off
Versions: 1 2 3 4 5 6 7 8 9 10 11 12 13 14 15 16 17 18 19 20 21 22 23 24 25 26 27 28 29 30 31 32 33 34 35 36 37 38 39 40 41 42 43 44 45 46 47 48 49 50

000
ASUS41 KCTP 230903
RWRCTP

REGIONAL WEATHER ROUNDUP
NATIONAL WEATHER SERVICE STATE COLLEGE PA
500 AM EDT SAT MAY 23 2015

Note: "fair" indicates few or no clouds below 12,000 feet with no
significant weather and/or obstructions to visibility.

* = STATION THAT DOES NOT REPORT PRECIPITATION /E.G. RAIN...SNOW...ETC/
    THUNDER OR FOG.

PAZ002>004-007>009-013>016-020>023-029>032-231000-
WESTERN PENNSYLVANIA

CITY           SKY/WX    TMP DP  RH WIND       PRES   REMARKS
ERIE           CLEAR     36  30  79 S5        30.35R
MEADVILLE      CLEAR     35  29  78 CALM      30.34R HAZE
FRANKLIN*      CLEAR     30  25  80 S5        30.36R
NEW CASTLE     FAIR      33  33 100 CALM      30.38R
BEAVER COUNTY  NOT AVBL
BUTLER*        CLEAR     34  28  80 NE5       30.38R
PITTSBURGH INT PTCLDY    39  32  76 CALM      30.35R
PITTSBURGH     CLEAR     43  25  49 S5        30.35R
INDIANA*       CLEAR     34  32  93 E5        30.39R
LATROBE        CLEAR     32  32 100 CALM      30.38R
WASHINGTON CO* CLEAR     34  30  86 CALM      30.38R
$$

PAZ004>006-010>012-017>019-024>028-033>037-041-042-045-046-049>053-231000-
CENTRAL PENNSYLVANIA

CITY           SKY/WX    TMP DP  RH WIND       PRES   REMARKS
BRADFORD       CLEAR     27  20  75 CALM      30.32S
DUBOIS         CLEAR     36  23  59 CALM      30.33R
CLEARFIELD     CLEAR     32  25  75 CALM      30.35R
JOHNSTOWN      CLEAR     37  20  50 SW5       30.34R
ALTOONA        CLEAR     36  27  69 S3        30.35R
STATE COLLEGE  CLEAR     40  22  47 CALM      30.35R
WILLIAMSPORT   CLEAR     42  28  57 CALM      30.36R
SELINSGROVE    CLEAR     40  29  64 NW3       30.36R
FT INDIANTOWN  CLEAR     49  20  32 N1        30.33R
CAPITAL CITY   CLEAR     45  28  51 SW6       30.34R
HARRISBURG     CLEAR     50  21  32 NW9       30.33R
YORK           CLEAR     40  32  73 W3        30.34R
$$

PAZ038>040-043-044-047-048-054-055-060>062-067>071-231000-
EASTERN PENNSYLVANIA

CITY           SKY/WX    TMP DP  RH WIND       PRES   REMARKS
SCRANTON       CLEAR     42  26  53 W3        30.34R
MOUNT POCONO   CLEAR     35  25  66 NW7       30.29R
ALLENTOWN      CLEAR     47  27  45 N13       30.32R
QUAKERTOWN*    SUNNY     45  28  53 N5        30.33R
READING        CLEAR     46  29  51 N6        30.32R
LANCASTER      CLEAR     44  29  55 W3        30.33R
COATESVILLE    SUNNY     48  27  43 NW6       30.31R
POTTSTOWN      CLEAR     45  32  60 N5        30.33R
BLUE BELL      CLEAR     46  32  57 CALM      30.31R
DOYLESTOWN     CLEAR     45  32  60 N7        30.32R
WILLOW GROVE   NOT AVBL
NORTH PHILA    CLEAR     51  30  44 N10       30.32R
PHILADELPHIA   CLEAR     53  31  42 N9        30.30R
$$


USA.gov is the U.S. government's official web portal to all federal, state and local government web resources and services.